Meteo Giornale » Osservazioni meteo Italia » Milano-Linate

ore: 13:50 - Osservazioni Meteo Milano-Linate
Lat. 45° 26' N Lon. 9° 17' E Alt. 107 metri s.l.m.

sereno Europe/Rome

10 °C

Sereno

Temp. 24 Ore

2 °C

10 °C

Ovest/Sud-Ovest

9.3 Km/h

Dew point 3 °C

Umidità 61 %

Visibilità  10 Km

Il sole sorge alle ore 07:48

Il sole tramonta alle ore 17:22

Data e Ora Cielo e Fenomeni T °C DP °C Um. % Pres. hPa Vis. km Vento km/h
Oggi h: 13:50 sereno Sereno 10 3 61 1021 10 O/SO 9.3
Oggi h: 13:20 sereno Sereno 10 3 61 1021 8 O/SO 9.3
Oggi h: 12:50 sereno Sereno 9 2 61 1021 7 O/SO 9.3
Oggi h: 12:20 sereno Sereno 9 3 66 1022 7 SO 7.4
Oggi h: 11:50 sereno Sereno 9 3 66 1022 7 N 5.5
Oggi h: 11:20 sereno Sereno 8 3 70 1022 6 N 5.5
Oggi h: 10:50 poco_nuvoloso Poco Nuvoloso 7 3 75 1022 6 N 3.7
Oggi h: 10:20 foschia Foschia 6 3 81 1022 5 N 5.5
Oggi h: 09:50 foschia Foschia 5 3 86 1022 4 N 3.7
Oggi h: 09:20 foschia Foschia 4 3 93 1022 4 N 1.8
Oggi h: 08:50 foschia Foschia 4 2 86 1022 4 N 3.7
Oggi h: 08:20 foschia Foschia 3 2 93 1022 4 N 3.7
Oggi h: 07:50 foschia Foschia 2 2 100 1022 4 N 3.7
Oggi h: 07:20 nebbia Nebbia a Strati 2 2 100 1022 6 N 5.5
Oggi h: 06:50 nebbia Nebbia a Strati 2 2 100 1021 8 N 1.8
Oggi h: 06:20 sereno Sereno 3 2 93 1021 10 N 1.8
Oggi h: 05:50 sereno Sereno 3 2 93 1021 10 N 1.8
Oggi h: 05:20 molto_nuvoloso Molto Nuvoloso 4 3 93 1022 10 N 3.7
Oggi h: 04:50 molto_nuvoloso Molto Nuvoloso 4 3 93 1021 10 N 3.7
Oggi h: 04:20 molto_nuvoloso Molto Nuvoloso 4 3 93 1022 8 N 3.7
Oggi h: 03:50 molto_nuvoloso Molto Nuvoloso 5 3 86 1022 8 O/SO 7.4
Oggi h: 03:20 molto_nuvoloso Molto Nuvoloso 4 3 93 1022 7 N 5.5
Oggi h: 02:50 molto_nuvoloso Molto Nuvoloso 4 3 93 1022 7 N 3.7
Oggi h: 02:20 molto_nuvoloso Molto Nuvoloso 4 3 93 1022 7 N 5.5
Oggi h: 01:50 nuvoloso Nuvoloso 5 4 93 1022 7 N 3.7
Oggi h: 01:20 molto_nuvoloso Molto Nuvoloso 4 4 100 1023 7 N 5.5
Oggi h: 00:50 molto_nuvoloso Molto Nuvoloso 4 3 93 1023 7 N 3.7
Oggi h: 00:20 molto_nuvoloso Molto Nuvoloso 4 3 93 1023 6 N 5.5
Ieri h: 23:50 nuvoloso Nuvoloso 5 4 93 1023 7 N 5.5
Ieri h: 23:20 nuvoloso Nuvoloso 5 4 93 1023 7 N 5.5
Ieri h: 22:50 foschia Foschia 5 4 93 1023 5 N 3.7
Ieri h: 22:20 foschia Foschia 5 4 93 1023 5 N 5.5
Ieri h: 21:50 foschia Foschia 5 4 93 1023 5 O/SO 7.4
Ieri h: 21:20 foschia Foschia 5 4 93 1023 5 N 3.7
Ieri h: 20:50 foschia Foschia 5 4 93 1023 5 N 5.5
Ieri h: 20:20 foschia Foschia 6 5 93 1023 5 N 5.5
Ieri h: 19:50 foschia Foschia 6 5 93 1023 5 N 1.8
Ieri h: 19:20 foschia Foschia 6 5 93 1023 5 N 1.8
Ieri h: 18:50 foschia Foschia 6 4 86 1023 5 N 5.5
Ieri h: 17:50 foschia Foschia 7 4 81 1023 4 S/SO 7.4
Ieri h: 17:20 foschia Foschia 7 4 81 1023 4 SO 7.4
Ieri h: 16:50 foschia Foschia 8 4 75 1023 5 SO 7.4
Ieri h: 16:20 foschia Foschia 8 4 75 1023 5 O/SO 7.4
Ieri h: 15:50 foschia Foschia 8 3 70 1023 5 O/SO 7.4
Ieri h: 15:20 foschia Foschia 8 3 70 1023 5 SO 7.4
Ieri h: 14:50 foschia Foschia 8 3 70 1023 5 SO 7.4
Ieri h: 14:20 molto_nuvoloso Molto Nuvoloso 8 3 70 1023 6 SO 7.4
Ieri h: 13:50 molto_nuvoloso Molto Nuvoloso 8 3 70 1024 6 N 5.5